JF7ELG-13 Weather Reports


Display with metric or nautical units.
time (UTC)temp
F
wind
direction
speed
MPH
gust
MPH
rain 1hr
in
rain 24hr
in
rain mn
in
humidity
%
barometer
mb
20260505061823 64 35 1.0 4.0 0.00 0.00 0.00 58 1015.5
20260505060356 63 316 1.0 4.0 0.00 0.00 0.00 58 1015.5
20260505054837 64 27 1.0 4.0 0.00 0.00 0.00 57 1015.4
20260505053350 65 299 1.0 3.0 0.00 0.00 0.00 54 1015.3
20260505051849 64 292 1.0 3.0 0.00 0.00 0.00 53 1015.5
20260505050321 63 300 1.0 4.0 0.00 0.00 0.00 53 1015.6
20260505040321 63 293 1.0 5.0 0.00 0.00 0.00 55 1015.6
20260505034827 62 283 1.0 4.0 0.00 0.00 0.00 56 1015.7
20260505033334 63 307 0.0 6.0 0.00 0.00 0.00 57 1015.5
20260505031839 64 240 2.0 4.0 0.00 0.00 0.00 53 1015.6
20260505030329 75 95 0.0 1.0 0.00 0.00 0.00 32 1015.6
20260505024833 73 97 0.0 1.0 0.00 0.00 0.00 34 1015.6
20260505023326 73 94 0.0 1.0 0.00 0.00 0.00 34 1015.5
20260505021846 73 84 0.0 1.0 0.00 0.00 0.00 35 1015.5
20260505020316 72 107 1.0 3.0 0.00 0.00 0.00 37 1015.4
20260505014830 72 93 0.0 1.0 0.00 0.00 0.00 37 1015.7
20260505013325 70 93 0.0 1.0 0.00 0.00 0.00 39 1015.6
20260505011840 71 102 0.0 1.0 0.00 0.00 0.00 37 1015.7
20260505010334 70 91 0.0 1.0 0.00 0.00 0.00 39 1015.6
20260505004818 70 81 0.0 1.0 0.00 0.00 0.00 41 1015.4
20260505003355 68 100 0.0 2.0 0.00 0.00 0.00 42 1015.3
20260505001836 68 90 0.0 1.0 0.00 0.00 0.00 44 1015.2
20260505000346 66 91 0.0 2.0 0.00 0.00 0.00 45 1015.0
20260504234845 66 110 0.0 1.0 0.00 0.00 0.00 45 1014.8
20260504233334 65 71 0.0 1.0 0.00 0.00 0.00 47 1014.8
20260504231841 63 93 0.0 1.0 0.00 0.00 0.00 49 1014.8
20260504230331 61 101 0.0 3.0 0.00 0.00 0.00 51 1014.7
20260504224836 60 131 0.0 2.0 0.00 0.00 0.00 53 1014.5
20260504223328 59 110 0.0 2.0 0.00 0.00 0.00 57 1014.3
20260504221831 58 94 0.0 2.0 0.00 0.00 0.00 58 1013.9
20260504220324 57 101 0.0 3.0 0.00 0.00 0.00 60 1013.7
20260504214847 55 112 0.0 4.0 0.00 0.00 0.00 61 1013.5
20260504213324 55 99 0.0 2.0 0.00 0.00 0.00 63 1013.5
20260504211827 54 88 0.0 3.0 0.00 0.00 0.00 63 1013.0
20260504210347 53 116 0.0 2.0 0.00 0.00 0.00 65 1013.1
20260504204843 52 101 0.0 2.0 0.00 0.00 0.00 66 1013.0
20260504203353 52 107 0.0 5.0 0.00 0.00 0.00 65 1012.5
20260504201830 52 111 0.0 1.0 0.00 0.00 0.00 64 1012.0
20260504200325 51 119 0.0 1.0 0.00 0.00 0.00 64 1011.6
20260504194823 51 112 0.0 2.0 0.00 0.04 0.00 64 1011.2
20260504193331 51 108 0.0 2.0 0.00 0.04 0.00 65 1011.1
20260504191836 51 94 0.0 1.0 0.00 0.04 0.00 65 1011.0
20260504190330 51 83 0.0 1.0 0.00 0.04 0.00 65 1010.6
20260504184833 51 105 0.0 3.0 0.00 0.08 0.00 65 1010.4
20260504183331 51 104 0.0 1.0 0.00 0.08 0.00 67 1010.3
20260504181834 51 105 0.0 3.0 0.00 0.08 0.00 66 1010.0
20260504180330 51 126 0.0 3.0 0.00 0.08 0.00 66 1009.8
20260504174835 51 107 0.0 2.0 0.00 0.08 0.00 65 1009.4
20260504173328 51 111 0.0 1.0 0.00 0.08 0.00 65 1009.2
20260504171825 52 83 0.0 2.0 0.00 0.08 0.00 64 1008.8
20260504170315 52 113 0.0 6.0 0.00 0.08 0.00 64 1008.4
20260504160329 53 118 0.0 6.0 0.00 0.08 0.00 60 1006.2
20260504150321 54 106 0.0 2.0 0.00 0.08 0.00 64 1004.9
20260504140316 56 116 1.0 6.0 0.00 0.08 0.00 60 1002.6
20260504130331 59 133 1.0 5.0 0.00 0.08 0.02 54 999.6
20260504110318 62 120 2.0 11.0 0.00 0.08 0.02 56 996.8
20260504100323 63 109 1.0 8.0 0.00 0.08 0.02 57 996.1
20260504081837 66 82 2.0 12.0 0.00 0.08 0.02 54 994.7
20260504080349 67 127 3.0 11.0 0.00 0.08 0.02 54 994.3
20260504070329 68 84 2.0 9.0 0.00 0.08 0.02 56 993.5